Location: Voyageurs National Park
(48.5020°N, 92.9292°W)
Time: 12:26:55
(UTC-06:00)

Amateur Radio Satellites - All Passes

Search period start: 26 January 2015 11:56
Search period end: 27 January 2015 11:56
Location: Voyageurs National Park, 48.5020°N, 92.9292°W

Satellite Date Start Highest point End Downlink Frequencies (MHz)
Time Altitude Azimuth
HUMSAT D 26 Jan 11:57:38 12:01:14 26° 295° (WNW) 12:04:45 437.325/437.525
50 SAT 26 Jan 12:04:01 12:07:31 27° 294° (WNW) 12:10:55 437.505
Gurwin Techsat 1B 26 Jan 12:04:51 12:07:28 14° 54° (NE) 12:10:16 435.225
VELOX 1 26 Jan 12:16:22 12:20:02 24° 296° (WNW) 12:23:38 145.980
VERMONT LUNAR 26 Jan 12:19:05 12:21:53 22° 179° (S) 12:24:42 437.305
AIST 2 26 Jan 12:20:51 12:25:11 83° 232° (SW) 12:29:26 435.215
SPROUT 26 Jan 12:32:28 12:36:51 72° 102° (ESE) 12:41:12 437.525
BEESAT 26 Jan 12:32:46 12:35:00 13° 86° (E) 12:37:27 436.000
CUBEBUG 1 26 Jan 12:34:27 12:38:27 33° 293° (WNW) 12:42:25 437.445
ITUPSAT 1 26 Jan 12:34:30 12:36:48 14° 86° (E) 12:39:21 437.325
GONETS M04 26 Jan 12:35:00 12:43:42 71° 77° (ENE) 12:52:23
SO-50 26 Jan 12:40:47 12:45:15 44° 318° (NW) 12:49:51 436.795
PCSat 26 Jan 12:41:10 12:46:01 32° 40° (NE) 12:50:53 145.827
BEESAT 2 26 Jan 12:42:48 12:46:17 25° 244° (WSW) 12:49:40 435.950
AIST 1 26 Jan 12:49:52 12:53:39 30° 289° (WNW) 12:57:27
Oscar 19 26 Jan 12:54:28 12:59:41 77° 257° (WSW) 13:04:55 437.125/150
PHONESAT 2.4 26 Jan 12:58:39 13:01:36 23° 180° (S) 13:04:34 2401.200-2431.200
BEESAT 3 26 Jan 13:01:02 13:03:36 16° 248° (WSW) 13:06:02 437.485
HORYU 2 26 Jan 13:01:28 13:03:12 12° 57° (ENE) 13:05:08 437.375
ITAMSAT 1 26 Jan 13:03:27 13:08:28 53° 69° (ENE) 13:13:33 435.822/435.867
ESTCUBE 1 26 Jan 13:16:05 13:18:46 15° 301° (WNW) 13:21:19 437.505/2401.250
TISAT 1 26 Jan 13:21:08 13:25:11 39° 291° (WNW) 13:29:09 437.305
DANDE 26 Jan 13:28:39 13:32:18 14° 42° (NE) 13:35:53 436.750
Gurwin Techsat 1B 26 Jan 13:41:22 13:46:40 75° 73° (ENE) 13:52:00 435.225
AO-7 26 Jan 13:42:01 13:49:09 34° 53° (NE) 13:56:26 29.400- 29.500
KKS-1 26 Jan 13:45:43 13:48:07 14° 87° (E) 13:50:42 437.445
SWISSCUBE 26 Jan 13:52:18 13:57:07 76° 104° (ESE) 14:01:54 437.505
VERMONT LUNAR 26 Jan 13:57:04 13:59:23 16° 196° (SSW) 14:01:41 437.305
RS-15 26 Jan 14:01:20 14:12:41 86° 51° (NE) 14:24:33 29.354- 29.394
AIST 2 26 Jan 14:01:46 14:03:09 11° 250° (WSW) 14:04:20 435.215
JAS-2 26 Jan 14:06:37 14:08:23 12° 53° (NE) 14:10:21 435.910
BEESAT 26 Jan 14:08:47 14:13:35 83° 285° (WNW) 14:18:22 436.000
SPROUT 26 Jan 14:09:51 14:12:29 15° 300° (WNW) 14:14:59 437.525
ITUPSAT 1 26 Jan 14:10:37 14:15:26 82° 284° (WNW) 14:20:13 437.325
CUSAT 1 26 Jan 14:14:04 14:19:54 27° 56° (ENE) 14:24:46 437.405
SO-50 26 Jan 14:24:07 14:27:01 16° 341° (NNW) 14:29:55 436.795
PCSat 26 Jan 14:24:26 14:29:47 58° 241° (WSW) 14:35:05 145.827
GONETS M04 26 Jan 14:32:40 14:39:55 30° 278° (W) 14:46:57
HORYU 2 26 Jan 14:34:42 14:39:13 82° 74° (ENE) 14:43:46 437.375
PHONESAT 2.4 26 Jan 14:37:07 14:39:31 17° 197° (SSW) 14:41:54 2401.200-2431.200
Oscar 19 26 Jan 14:38:16 14:40:03 11° 277° (W) 14:41:31 437.125/150
ITAMSAT 1 26 Jan 14:44:07 14:48:20 24° 268° (W) 14:52:29 435.822/435.867
M-CUBED/EXP-1 PRIME 26 Jan 15:03:01 15:05:18 17° 98° (E) 15:07:39 437.505
DANDE 26 Jan 15:10:40 15:18:07 55° 69° (ENE) 15:23:50 436.750
KKS-1 26 Jan 15:20:51 15:25:22 71° 286° (WNW) 15:29:50 437.445
STARS 26 Jan 15:21:32 15:26:02 82° 104° (ESE) 15:30:29 437.465
Gurwin Techsat 1B 26 Jan 15:23:45 15:27:20 17° 273° (W) 15:30:43 435.225
SWISSCUBE 26 Jan 15:31:21 15:34:29 17° 301° (WNW) 15:37:28 437.505
AO-7 26 Jan 15:33:02 15:41:25 74° 254° (WSW) 15:49:50 29.400- 29.500
AUBIESAT-1 26 Jan 15:38:14 15:41:24 40° 105° (ESE) 15:44:34 437.475
JAS-2 26 Jan 15:47:16 15:52:44 68° 73° (ENE) 15:57:56 435.910
BEESAT 26 Jan 15:48:22 15:50:47 14° 304° (NW) 15:53:01 436.000
ITUPSAT 1 26 Jan 15:50:17 15:52:40 13° 304° (NW) 15:54:51 437.325
CUSAT 1 26 Jan 15:56:49 16:03:50 65° 265° (W) 16:09:05 437.405
SO-50 26 Jan 16:07:37 16:09:33 12° 6° (N) 16:11:31 436.795
HORYU 2 26 Jan 16:14:29 16:16:35 13° 274° (W) 16:18:28 437.375
RS-15 26 Jan 16:14:30 16:24:07 32° 253° (WSW) 16:33:43 29.354- 29.394
Cubesat XI-IV 26 Jan 16:22:46 16:27:07 27° 61° (ENE) 16:31:34 437.490
O/OREOS (USA 219) 26 Jan 16:32:11 16:36:11 33° 107° (ESE) 16:40:16 437.305
M-CUBED/EXP-1 PRIME 26 Jan 16:37:28 16:40:30 32° 297° (WNW) 16:43:30 437.505
MOZHAYETS 4 26 Jan 16:37:39 16:41:51 36° 96° (E) 16:46:05
CUTE-I 26 Jan 16:43:05 16:47:54 37° 65° (ENE) 16:52:48 437.470
DANDE 26 Jan 16:54:47 17:01:07 31° 276° (W) 17:06:06 436.750
STARS 26 Jan 16:59:28 17:01:58 15° 302° (WNW) 17:04:19 437.465
KKS-1 26 Jan 17:00:01 17:01:16 11° 305° (NW) 17:02:19 437.445
AUBIESAT-1 26 Jan 17:14:01 17:16:09 16° 302° (WNW) 17:18:12 437.475
AO-7 26 Jan 17:30:38 17:35:55 17° 276° (W) 17:40:44 29.400- 29.500
JAS-2 26 Jan 17:34:42 17:38:29 18° 271° (W) 17:41:58 435.910
CUSAT 1 26 Jan 17:43:04 17:45:07 11° 288° (WNW) 17:46:40 437.405
SO-50 26 Jan 17:48:00 17:51:50 23° 29° (NNE) 17:55:46 436.795
YUBILEINY 26 Jan 17:49:37 17:51:48 11° 70° (ENE) 17:54:38 435.215
Cubesat XI-IV 26 Jan 18:01:46 18:06:58 53° 260° (W) 18:12:12 437.490
PRISM 26 Jan 18:03:50 18:07:27 29° 95° (E) 18:11:06 437.425
O/OREOS (USA 219) 26 Jan 18:11:29 18:15:36 33° 306° (NW) 18:19:44 437.305
MOZHAYETS 4 26 Jan 18:15:03 18:19:03 29° 294° (WNW) 18:22:57
BRITE-PL 26 Jan 18:16:21 18:19:05 15° 55° (NE) 18:22:06 437.365/2234.400
CUBESAT XI-V 26 Jan 18:21:28 18:25:44 34° 95° (E) 18:30:02 437.345
CUTE-I 26 Jan 18:23:07 18:28:01 36° 264° (W) 18:32:56 437.470
GOMX 1 26 Jan 18:27:22 18:29:47 14° 54° (NE) 18:32:26 467.674
CUTE 1.7 + AOD 2 26 Jan 18:44:36 18:46:47 14° 60° (ENE) 18:49:07 437.475
HO-68 26 Jan 18:45:34 18:51:47 34° 58° (ENE) 18:58:07 435.675
DOVE 4 26 Jan 18:52:46 18:55:47 16° 57° (ENE) 18:59:03 437.250
STRAND 1 26 Jan 18:53:47 18:58:46 48° 99° (E) 19:03:45 437.568
CINEMA 3 26 Jan 19:03:00 19:04:47 12° 55° (NE) 19:06:46 145.822/145.860
SEEDS 26 Jan 19:17:58 19:21:22 24° 65° (ENE) 19:24:50 437.485
SO-50 26 Jan 19:28:10 19:33:06 86° 51° (NE) 19:38:03 436.795
YUBILEINY 26 Jan 19:38:26 19:46:47 56° 91° (E) 19:55:15 435.215
PRISM 26 Jan 19:39:19 19:42:59 31° 293° (WNW) 19:46:37 437.425
UWE-3 26 Jan 19:43:45 19:46:01 14° 58° (ENE) 19:48:27 435.000/436.395/437.385
COMPASS 1 26 Jan 19:48:08 19:52:04 39° 69° (ENE) 19:56:01 437.405
BRITE-PL 26 Jan 19:51:41 19:56:43 79° 75° (ENE) 20:02:12 437.365/2234.400
CANX-2 26 Jan 19:53:19 19:57:35 65° 73° (ENE) 20:01:52 2200.000
CUBESAT XI-V 26 Jan 19:59:00 20:03:11 32° 293° (WNW) 20:07:18 437.345
GOMX 1 26 Jan 20:01:56 20:06:58 72° 74° (ENE) 20:12:22 467.674
Oscar 11 26 Jan 20:09:31 20:13:21 31° 67° (ENE) 20:17:13 145.826/435.025
AAUSAT CUBESAT 2 26 Jan 20:16:24 20:20:35 66° 74° (ENE) 20:24:47 437.432
CUTE 1.7 + AOD 2 26 Jan 20:17:54 20:22:12 78° 257° (WSW) 20:26:31 437.475
DOVE 4 26 Jan 20:27:48 20:32:50 89° 62° (ENE) 20:38:10 437.250
DELFI C3 26 Jan 20:28:26 20:32:12 37° 69° (ENE) 20:36:00 145.870
CUBEBUG 2 26 Jan 20:31:25 20:35:49 39° 68° (ENE) 20:40:18 437.445
HO-68 26 Jan 20:32:10 20:39:14 60° 258° (WSW) 20:46:19 435.675
STRAND 1 26 Jan 20:33:25 20:37:47 28° 297° (WNW) 20:42:04 437.568
CINEMA 3 26 Jan 20:36:14 20:41:07 67° 73° (ENE) 20:46:10 145.822/145.860
UKube-1 26 Jan 20:42:59 20:47:03 42° 69° (ENE) 20:51:11 .
ZACube-1 26 Jan 20:51:41 20:56:01 43° 69° (ENE) 21:00:25 437.345
SEEDS 26 Jan 20:53:00 20:57:02 40° 263° (W) 21:01:04 437.485
DX 1 26 Jan 21:00:05 21:04:23 64° 72° (ENE) 21:08:44 434.975-435.025
FUNcube-1 26 Jan 21:04:27 21:08:57 55° 71° (ENE) 21:13:29 145.935
ESTCUBE 1 26 Jan 21:06:41 21:09:21 16° 60° (ENE) 21:12:09 437.505/2401.250
SO-50 26 Jan 21:10:00 21:13:07 17° 249° (WSW) 21:16:05 436.795
AISAT 26 Jan 21:11:20 21:15:22 34° 67° (ENE) 21:19:27 437.250
AIST 1 26 Jan 21:16:40 21:18:21 12° 61° (ENE) 21:20:14
HUMSAT D 26 Jan 21:17:08 21:21:15 43° 70° (ENE) 21:25:25 437.325/437.525
UWE-3 26 Jan 21:17:13 21:21:55 86° 72° (ENE) 21:26:40 435.000/436.395/437.385
50 SAT 26 Jan 21:19:51 21:23:36 34° 69° (ENE) 21:27:24 437.505
COMPASS 1 26 Jan 21:24:29 21:27:57 23° 268° (W) 21:31:20 437.405
CANX-2 26 Jan 21:31:32 21:34:03 15° 273° (W) 21:36:24 2200.000
BRITE-PL 26 Jan 21:32:47 21:36:04 16° 276° (W) 21:39:17 437.365/2234.400
YUBILEINY 26 Jan 21:35:58 21:44:02 40° 294° (WNW) 21:52:04 435.215
VELOX 1 26 Jan 21:40:43 21:45:05 63° 73° (ENE) 21:49:31 145.980
GOMX 1 26 Jan 21:42:14 21:45:48 18° 275° (W) 21:49:18 467.674
Oscar 11 26 Jan 21:45:38 21:49:32 31° 265° (W) 21:53:25 145.826/435.025
AAUSAT CUBESAT 2 26 Jan 21:54:28 21:56:46 14° 273° (W) 21:58:55 437.432
SPROUT 26 Jan 21:57:21 21:59:06 12° 58° (ENE) 22:00:59 437.525
CUBEBUG 1 26 Jan 21:58:03 22:02:07 40° 69° (ENE) 22:06:14 437.445
NANOSAT C BR1 26 Jan 21:58:41 22:00:07 12° 86° (E) 22:01:46 145.865
DELFI C3 26 Jan 22:04:17 22:07:36 23° 268° (W) 22:10:51 145.870
UNISAT 6 26 Jan 22:04:46 22:08:18 23° 91° (E) 22:11:50 437.425
CUBEBUG 2 26 Jan 22:08:27 22:12:38 29° 267° (W) 22:16:48 437.445
DOVE 4 26 Jan 22:08:43 22:11:29 14° 277° (W) 22:14:05 437.250
QB50P2 26 Jan 22:10:25 22:13:01 16° 88° (E) 22:15:45 145.880/145.840
CINEMA 3 26 Jan 22:15:25 22:18:53 18° 273° (W) 22:22:15 145.822/145.860
UKube-1 26 Jan 22:19:56 22:23:25 23° 267° (W) 22:26:51 .
QB50P1 26 Jan 22:20:23 22:23:30 20° 91° (E) 22:26:42 145.935-145.965
HO-68 26 Jan 22:26:21 22:28:43 11° 280° (W) 22:30:33 435.675
ZACube-1 26 Jan 22:28:45 22:32:36 25° 268° (W) 22:36:23 437.345
POLYITAN 1 26 Jan 22:32:53 22:36:32 26° 93° (E) 22:40:11 437.675
DX 1 26 Jan 22:38:30 22:41:09 15° 271° (W) 22:43:40 434.975-435.025
ANTELSAT 26 Jan 22:40:00 22:44:24 48° 99° (E) 22:48:41 437.575/2403.000
ESTCUBE 1 26 Jan 22:41:16 22:45:45 73° 257° (WSW) 22:50:16 437.505/2401.250
TISAT 1 26 Jan 22:41:52 22:45:33 30° 66° (ENE) 22:49:19 437.305
FUNcube-1 26 Jan 22:42:18 22:45:41 19° 271° (W) 22:48:58 145.935
BUGSAT 1 26 Jan 22:46:28 22:50:07 27° 94° (E) 22:53:50 437.445
AISAT 26 Jan 22:48:08 22:52:03 29° 266° (W) 22:55:58 437.250
TIGRISAT 26 Jan 22:49:24 22:53:54 59° 101° (E) 22:58:15 435.000
AIST 1 26 Jan 22:52:24 22:56:45 84° 262° (W) 23:01:07
HUMSAT D 26 Jan 22:53:47 22:57:17 22° 269° (W) 23:00:41 437.325/437.525
POPSAT HIP 1 26 Jan 22:54:10 22:58:17 41° 98° (E) 23:02:22 437.405
50 SAT 26 Jan 22:55:19 22:58:50 25° 267° (W) 23:02:17 437.505
UWE-3 26 Jan 22:56:58 22:59:12 13° 275° (W) 23:01:13 435.000/436.395/437.385
DUCHIFAT 1 26 Jan 22:58:28 23:02:37 45° 98° (E) 23:06:45 145.980
VELOX 1 26 Jan 23:19:22 23:22:11 16° 271° (W) 23:24:52 145.980
SWISSCUBE 26 Jan 23:26:41 23:30:02 20° 60° (ENE) 23:33:31 437.505
SPROUT 26 Jan 23:30:15 23:34:34 88° 82° (E) 23:38:57 437.525
NANOSAT C BR1 26 Jan 23:32:20 23:36:41 82° 285° (WNW) 23:40:59 145.865
CUBEBUG 1 26 Jan 23:35:08 23:38:41 24° 267° (W) 23:42:13 437.445
UNISAT 6 26 Jan 23:41:02 23:45:22 44° 290° (WNW) 23:49:33 437.425
ISS 26 Jan 23:41:35 23:44:46 47° 150° (SSE) 23:47:58 145.825
BEESAT 26 Jan 23:42:30 23:46:18 25° 63° (ENE) 23:50:12 436.000
ITUPSAT 1 26 Jan 23:44:35 23:48:25 25° 63° (ENE) 23:52:21 437.325
QB50P2 26 Jan 23:45:07 23:49:24 60° 288° (WNW) 23:53:38 145.880/145.840
GONETS M04 26 Jan 23:48:59 23:53:30 16° 74° (ENE) 23:58:29
QB50P1 26 Jan 23:55:31 23:59:42 48° 290° (WNW) 00:03:51 145.935-145.965
POLYITAN 1 27 Jan 00:08:35 00:12:35 36° 292° (WNW) 00:16:32 437.675
ANTELSAT 27 Jan 00:17:25 00:20:56 22° 297° (WNW) 00:24:18 437.575/2403.000
TISAT 1 27 Jan 00:17:34 00:21:22 31° 265° (W) 00:25:10 437.305
BUGSAT 1 27 Jan 00:21:48 00:25:41 34° 292° (WNW) 00:29:33 437.445
TIGRISAT 27 Jan 00:27:02 00:30:16 19° 299° (WNW) 00:33:19 435.000
POPSAT HIP 1 27 Jan 00:30:29 00:34:00 24° 296° (WNW) 00:37:27 437.405
DUCHIFAT 1 27 Jan 00:34:52 00:38:15 22° 296° (WNW) 00:41:33 145.980
KKS-1 27 Jan 00:47:24 00:50:49 22° 63° (ENE) 00:54:20 437.445
STARS 27 Jan 00:47:58 00:50:38 16° 60° (ENE) 00:53:28 437.465
AUBIESAT-1 27 Jan 00:57:39 00:59:44 14° 57° (ENE) 01:01:52 437.475
O/OREOS (USA 219) 27 Jan 00:59:10 01:02:33 20° 47° (NE) 01:06:01 437.305
Oscar 19 27 Jan 01:02:38 01:07:03 29° 93° (E) 01:11:30 437.125/150
SWISSCUBE 27 Jan 01:02:48 01:07:32 63° 259° (WSW) 01:12:17 437.505
SPROUT 27 Jan 01:10:16 01:11:26 11° 275° (W) 01:12:21 437.525
NANOSAT C BR1 27 Jan 01:10:21 01:11:54 12° 303° (WNW) 01:13:17 145.865
ITAMSAT 1 27 Jan 01:14:00 01:16:31 14° 85° (E) 01:19:18 435.822/435.867
ISS 27 Jan 01:18:02 01:21:17 55° 348° (NNW) 01:24:33 145.825
BEESAT 27 Jan 01:19:20 01:23:57 48° 261° (W) 01:28:34 436.000
ITUPSAT 1 27 Jan 01:21:32 01:26:08 46° 261° (W) 01:30:44 437.325
GONETS M04 27 Jan 01:40:12 01:48:53 71° 95° (E) 01:57:34
Gurwin Techsat 1B 27 Jan 01:54:23 01:58:28 23° 90° (E) 02:02:39 435.225
M-CUBED/EXP-1 PRIME 27 Jan 01:54:57 01:58:56 57° 67° (ENE) 02:02:36 437.505
STARS 27 Jan 02:22:12 02:26:39 72° 257° (WSW) 02:31:08 437.465
KKS-1 27 Jan 02:22:51 02:27:13 49° 261° (W) 02:31:36 437.445
HORYU 2 27 Jan 02:24:31 02:26:09 12° 86° (E) 02:28:01 437.375
AUBIESAT-1 27 Jan 02:30:22 02:34:23 66° 252° (WSW) 02:38:05 437.475
O/OREOS (USA 219) 27 Jan 02:37:54 02:42:28 67° 247° (WSW) 02:47:01 437.305
BEESAT 2 27 Jan 02:40:59 02:44:20 25° 116° (ESE) 02:47:48 435.950
Oscar 19 27 Jan 02:41:42 02:46:37 44° 292° (WNW) 02:51:28 437.125/150
DANDE 27 Jan 02:46:16 02:50:01 14° 75° (ENE) 02:54:21 436.750
ITAMSAT 1 27 Jan 02:51:37 02:56:53 90° 72° (ENE) 03:02:08 435.822/435.867
ISS 27 Jan 02:54:51 02:58:07 51° 9° (N) 03:01:22 145.825
BEESAT 3 27 Jan 02:57:14 03:01:03 38° 120° (ESE) 03:04:57 437.485
CUSAT 1 27 Jan 03:25:20 03:32:02 30° 85° (E) 03:39:04 437.405
AO-7 27 Jan 03:30:45 03:37:53 31° 93° (E) 03:45:07 29.400- 29.500
M-CUBED/EXP-1 PRIME 27 Jan 03:31:50 03:34:13 15° 263° (W) 03:36:23 437.505
Gurwin Techsat 1B 27 Jan 03:33:39 03:38:53 59° 290° (WNW) 03:44:06 435.225
GONETS M04 27 Jan 03:38:55 03:46:36 32° 298° (WNW) 03:54:06
MOZHAYETS 4 27 Jan 03:43:12 03:47:39 52° 71° (ENE) 03:52:08
HORYU 2 27 Jan 03:59:03 04:03:33 83° 286° (WNW) 04:07:59 437.375
AIST 2 27 Jan 04:00:34 04:04:46 62° 125° (SE) 04:09:03 435.215
BEESAT 2 27 Jan 04:18:20 04:22:22 47° 315° (NW) 04:26:27 435.950
DANDE 27 Jan 04:23:59 04:31:57 58° 93° (E) 04:40:25 436.750
RS-15 27 Jan 04:30:53 04:40:08 35° 108° (ESE) 04:49:43 29.354- 29.394
ISS 27 Jan 04:31:26 04:34:42 58° 208° (SSW) 04:37:57 145.825
ITAMSAT 1 27 Jan 04:32:28 04:35:46 17° 304° (NW) 04:38:53 435.822/435.867
BEESAT 3 27 Jan 04:35:30 04:39:16 32° 320° (NW) 04:43:04 437.485
JAS-2 27 Jan 04:35:50 04:41:02 42° 98° (E) 04:46:48 435.910
STRAND 1 27 Jan 04:36:46 04:39:57 17° 57° (ENE) 04:43:18 437.568
PRISM 27 Jan 04:58:03 05:01:49 36° 68° (ENE) 05:05:38 437.425
CUSAT 1 27 Jan 05:06:13 05:14:29 78° 284° (WNW) 05:22:56 437.405
PCSat 27 Jan 05:09:26 05:14:46 61° 119° (ESE) 05:20:09 145.827
Gurwin Techsat 1B 27 Jan 05:16:13 05:17:55 11° 309° (NW) 05:19:22 435.225
MOZHAYETS 4 27 Jan 05:21:48 05:25:15 20° 270° (W) 05:28:36
AO-7 27 Jan 05:23:06 05:31:26 71° 294° (WNW) 05:39:39 29.400- 29.500
CUBESAT XI-V 27 Jan 05:28:35 05:33:01 50° 71° (ENE) 05:37:31 437.345
HORYU 2 27 Jan 05:37:39 05:39:35 12° 303° (WNW) 05:41:19 437.375
AIST 2 27 Jan 05:40:10 05:43:46 25° 325° (NW) 05:47:21 435.215
YUBILEINY 27 Jan 05:43:37 05:51:24 35° 63° (ENE) 05:59:18 435.215
BEESAT 2 27 Jan 05:59:27 06:01:37 14° 337° (NNW) 06:03:44 435.950
DANDE 27 Jan 06:07:53 06:15:48 43° 295° (WNW) 06:23:54 436.750
ISS 27 Jan 06:09:29 06:10:41 11° 225° (SW) 06:11:47 145.825
STRAND 1 27 Jan 06:13:29 06:18:36 83° 257° (WSW) 06:23:45 437.568
Cubesat XI-IV 27 Jan 06:15:02 06:20:12 46° 98° (E) 06:25:23 437.490
BEESAT 3 27 Jan 06:17:22 06:18:40 11° 342° (NNW) 06:19:55 437.485
JAS-2 27 Jan 06:21:16 06:26:10 34° 295° (WNW) 06:31:26 435.910
PRISM 27 Jan 06:34:05 06:37:29 24° 266° (W) 06:40:50 437.425
CUTE-I 27 Jan 06:35:39 06:41:02 68° 102° (ESE) 06:46:24 437.470
RS-15 27 Jan 06:40:41 06:51:38 78° 312° (NW) 07:02:49 29.354- 29.394
CUSAT 1 27 Jan 06:52:27 06:58:59 23° 306° (NW) 07:05:12 437.405
PCSat 27 Jan 06:53:46 06:58:34 31° 320° (NW) 07:03:22 145.827
CUBESAT XI-V 27 Jan 07:07:16 07:10:49 21° 270° (W) 07:14:16 437.345
AO-7 27 Jan 07:16:59 07:22:58 22° 316° (NW) 07:28:42 29.400- 29.500
AIST 2 27 Jan 07:23:14 07:23:52 10° 348° (NNW) 07:24:28 435.215
YUBILEINY 27 Jan 07:40:16 07:48:55 65° 267° (W) 07:57:33 435.215
BRITE-PL 27 Jan 07:53:20 07:57:49 24° 88° (E) 08:02:20 437.365/2234.400
Cubesat XI-IV 27 Jan 07:55:29 08:00:09 30° 297° (WNW) 08:04:46 437.490
HO-68 27 Jan 07:56:18 08:01:37 23° 88° (E) 08:07:09 435.675
STRAND 1 27 Jan 07:56:36 07:58:44 12° 276° (W) 08:00:35 437.568
DANDE 27 Jan 07:57:59 08:01:55 13° 319° (NW) 08:05:26 436.750
CUTE 1.7 + AOD 2 27 Jan 08:01:04 08:03:17 14° 87° (E) 08:05:40 437.475
GOMX 1 27 Jan 08:01:10 08:05:00 20° 86° (E) 08:08:53 467.674
ANTELSAT 27 Jan 08:09:37 08:11:00 11° 56° (NE) 08:12:35 437.575/2403.000
CUTE-I 27 Jan 08:16:35 08:20:42 22° 301° (WNW) 08:24:41 437.470
TIGRISAT 27 Jan 08:17:58 08:20:04 13° 57° (ENE) 08:22:21 435.000
DOVE 4 27 Jan 08:24:17 08:28:17 22° 88° (E) 08:32:17 437.250
CINEMA 3 27 Jan 08:29:36 08:31:55 14° 84° (E) 08:34:25 145.822/145.860
SEEDS 27 Jan 08:34:03 08:37:35 26° 93° (E) 08:41:07 437.485
PCSat 27 Jan 08:41:29 08:43:50 13° 345° (NNW) 08:46:06 145.827
NANOSAT C BR1 27 Jan 08:54:56 08:57:29 16° 61° (ENE) 09:00:12 145.865
RS-15 27 Jan 08:55:54 09:05:59 39° 342° (NNW) 09:16:17 29.354- 29.394
COMPASS 1 27 Jan 09:03:40 09:07:40 43° 98° (E) 09:11:39 437.405
AIST 2 27 Jan 09:03:52 09:04:26 10° 12° (NNE) 09:05:05 435.215
UWE-3 27 Jan 09:05:25 09:07:46 14° 86° (E) 09:10:16 435.000/436.395/437.385
UNISAT 6 27 Jan 09:07:07 09:11:20 34° 67° (ENE) 09:15:35 437.425
QB50P2 27 Jan 09:07:11 09:10:21 21° 63° (ENE) 09:13:38 145.880/145.840
CANX-2 27 Jan 09:10:57 09:15:13 78° 103° (ESE) 09:19:26 2200.000
QB50P1 27 Jan 09:17:00 09:20:28 25° 65° (ENE) 09:24:02 145.935-145.965
BEESAT 2 27 Jan 09:19:18 09:21:40 15° 25° (NNE) 09:24:06 435.950
Oscar 11 27 Jan 09:28:51 09:32:50 36° 96° (E) 09:36:50 145.826/435.025
POLYITAN 1 27 Jan 09:29:46 09:33:36 33° 67° (ENE) 09:37:31 437.675
BRITE-PL 27 Jan 09:31:08 09:36:47 62° 288° (WNW) 09:42:18 437.365/2234.400
AAUSAT CUBESAT 2 27 Jan 09:31:40 09:35:51 75° 102° (ESE) 09:40:00 437.432
CUTE 1.7 + AOD 2 27 Jan 09:35:31 09:39:45 65° 287° (WNW) 09:43:55 437.475
BEESAT 3 27 Jan 09:35:35 09:38:30 18° 30° (NNE) 09:41:28 437.485
GOMX 1 27 Jan 09:38:13 09:43:44 71° 287° (WNW) 09:49:02 467.674
YUBILEINY 27 Jan 09:39:43 09:44:08 14° 288° (WNW) 09:48:02 435.215
DELFI C3 27 Jan 09:40:00 09:43:47 37° 97° (E) 09:47:34 145.870
BUGSAT 1 27 Jan 09:40:29 09:44:07 31° 67° (ENE) 09:47:51 437.445
ANTELSAT 27 Jan 09:42:21 09:47:03 70° 73° (ENE) 09:51:45 437.575/2403.000
HO-68 27 Jan 09:43:03 09:50:15 81° 289° (WNW) 09:57:25 435.675
SO-50 27 Jan 09:50:22 09:51:08 10° 108° (ESE) 09:52:08 436.795
POPSAT HIP 1 27 Jan 09:50:41 09:54:49 51° 71° (ENE) 09:59:02 437.405
TIGRISAT 27 Jan 09:51:26 09:56:10 82° 75° (ENE) 10:00:53 435.000
GONETS M04 27 Jan 09:52:03 09:53:53 11° 39° (NE) 09:56:14
DUCHIFAT 1 27 Jan 09:54:40 09:58:50 55° 71° (ENE) 10:03:04 145.980
CUBEBUG 2 27 Jan 09:55:32 10:00:04 49° 98° (E) 10:04:27 437.445
VERMONT LUNAR 27 Jan 10:00:39 10:02:20 13° 160° (SSE) 10:04:05 437.305
DOVE 4 27 Jan 10:01:16 10:06:30 59° 289° (WNW) 10:11:31 437.250
UKube-1 27 Jan 10:02:50 10:07:03 45° 99° (E) 10:11:15 .
CINEMA 3 27 Jan 10:04:57 10:09:56 85° 285° (WNW) 10:14:42 145.822/145.860
SEEDS 27 Jan 10:09:40 10:13:30 34° 292° (WNW) 10:17:17 437.485
ZACube-1 27 Jan 10:13:04 10:17:28 52° 99° (E) 10:21:45 437.345
DX 1 27 Jan 10:20:51 10:25:16 71° 104° (ESE) 10:29:39 434.975-435.025
FUNcube-1 27 Jan 10:25:46 10:30:16 69° 102° (ESE) 10:34:37 145.935
PCSat 27 Jan 10:27:51 10:29:45 12° 11° (NNE) 10:31:43 145.827
NANOSAT C BR1 27 Jan 10:28:41 10:32:56 67° 258° (WSW) 10:37:14 145.865
50 SAT 27 Jan 10:30:35 10:34:17 33° 96° (E) 10:37:59 437.505
ESTCUBE 1 27 Jan 10:31:11 10:34:17 18° 90° (E) 10:37:31 437.505/2401.250
HUMSAT D 27 Jan 10:33:35 10:37:44 47° 99° (E) 10:41:49 437.325/437.525
AISAT 27 Jan 10:34:46 10:39:03 41° 98° (E) 10:43:19 437.250
COMPASS 1 27 Jan 10:39:56 10:43:11 22° 296° (WNW) 10:46:20 437.405
UWE-3 27 Jan 10:40:22 10:44:58 73° 287° (WNW) 10:49:23 435.000/436.395/437.385
AIST 2 27 Jan 10:40:57 10:44:33 25° 35° (NE) 10:48:08 435.215
QB50P2 27 Jan 10:41:51 10:46:01 48° 261° (W) 10:50:13 145.880/145.840
UNISAT 6 27 Jan 10:43:51 10:48:08 33° 265° (W) 10:52:23 437.425
PHONESAT 2.4 27 Jan 10:45:47 10:47:57 15° 162° (SSE) 10:50:10 2401.200-2431.200
Oscar 19 27 Jan 10:48:12 10:49:38 11° 52° (NE) 10:51:17 437.125/150
CANX-2 27 Jan 10:48:25 10:50:39 14° 300° (WNW) 10:52:43 2200.000
QB50P1 27 Jan 10:52:11 10:56:13 39° 263° (W) 11:00:16 145.935-145.965
BEESAT 2 27 Jan 10:56:41 11:00:49 54° 47° (NE) 11:04:54 435.950
VELOX 1 27 Jan 11:04:07 11:08:38 77° 103° (ESE) 11:13:08 145.980
Oscar 11 27 Jan 11:05:16 11:08:56 27° 294° (WNW) 11:12:32 145.826/435.025
POLYITAN 1 27 Jan 11:05:48 11:09:35 29° 266° (W) 11:13:22 437.675
AAUSAT CUBESAT 2 27 Jan 11:08:50 11:11:01 14° 300° (WNW) 11:13:04 437.432
BRITE-PL 27 Jan 11:11:38 11:14:18 13° 307° (NW) 11:16:42 437.365/2234.400
RS-15 27 Jan 11:11:50 11:21:56 38° 16° (NNE) 11:32:27 29.354- 29.394
BEESAT 3 27 Jan 11:13:07 11:17:19 83° 50° (NE) 11:21:27 437.485
SPROUT 27 Jan 11:15:12 11:16:58 13° 86° (E) 11:18:58 437.525
DELFI C3 27 Jan 11:15:37 11:18:53 23° 295° (WNW) 11:22:04 145.870
BUGSAT 1 27 Jan 11:16:06 11:19:39 28° 266° (W) 11:23:14 437.445
GOMX 1 27 Jan 11:18:06 11:20:58 14° 305° (NW) 11:23:35 467.674
CUBEBUG 1 27 Jan 11:19:17 11:23:36 48° 99° (E) 11:27:56 437.445
ANTELSAT 27 Jan 11:21:23 11:24:24 16° 272° (W) 11:27:14 437.575/2403.000
AIST 1 27 Jan 11:25:55 11:29:58 46° 94° (E) 11:34:05
SO-50 27 Jan 11:26:18 11:30:52 72° 126° (SE) 11:35:38 436.795
POPSAT HIP 1 27 Jan 11:28:00 11:31:05 19° 270° (W) 11:34:04 437.405
TIGRISAT 27 Jan 11:31:09 11:33:36 14° 274° (W) 11:35:51 435.000
HO-68 27 Jan 11:31:54 11:37:05 21° 310° (NW) 11:42:04 435.675
DUCHIFAT 1 27 Jan 11:32:13 11:35:06 17° 271° (W) 11:37:53 145.980
CUBEBUG 2 27 Jan 11:32:49 11:36:30 23° 297° (WNW) 11:40:00 437.445
VERMONT LUNAR 27 Jan 11:36:59 11:39:46 22° 176° (S) 11:42:33 437.305
UKube-1 27 Jan 11:39:31 11:43:00 23° 297° (WNW) 11:46:22 .
DOVE 4 27 Jan 11:41:32 11:43:16 11° 307° (NW) 11:44:45 437.250
CINEMA 3 27 Jan 11:43:45 11:46:25 14° 303° (WNW) 11:48:52 145.822/145.860
ZACube-1 27 Jan 11:50:09 11:53:32 21° 297° (WNW) 11:56:45 437.345
